N7QMJ Weather Reports


Display with metric or nautical units.
time (UTC)temp
F
wind
direction
speed
MPH
gust
MPH
rain 1hr
in
rain 24hr
in
rain mn
in
humidity
%
barometer
mb
20181023182131 67 0 3.0 7.0 0.00 4.03 0.00 26 1018.1
20181023181632 66 0 5.0 11.0 0.00 4.03 0.00 27 1018.3
20181023181133 63 0 6.0 11.0 0.00 4.03 0.00 29 1018.4
20181023180632 64 0 4.0 7.0 0.00 4.03 0.00 28 1018.4
20181023180132 62 0 3.0 6.0 0.00 4.03 0.00 31 1018.4
20181023175632 61 0 3.0 6.0 0.00 4.03 0.00 31 1018.4
20181023175131 61 0 3.0 6.0 0.00 4.03 0.00 32 1018.5
20181023174633 62 0 3.0 6.0 0.00 4.03 0.00 33 1018.4
20181023174131 60 0 3.0 9.0 0.00 4.03 0.00 33 1018.4
20181023173630 59 0 6.0 9.0 0.00 4.03 0.00 35 1018.5
20181023173129 59 0 3.0 5.0 0.00 4.03 0.00 34 1018.5
20181023172631 57 0 2.0 4.0 0.00 4.03 0.00 38 1018.5
20181023172131 57 0 1.0 4.0 0.00 4.03 0.00 38 1018.5
20181023171632 56 0 2.0 4.0 0.00 4.03 0.00 39 1018.6
20181023171130 55 0 1.0 3.0 0.00 4.03 0.00 38 1018.6
20181023170630 55 0 1.0 3.0 0.00 4.03 0.00 38 1018.6
20181023170131 55 0 1.0 3.0 0.00 4.03 0.00 40 1018.5
20181023165630 53 0 1.0 4.0 0.00 4.03 0.00 40 1018.6
20181023165131 52 0 1.0 4.0 0.00 4.03 0.00 42 1018.6
20181023164630 51 0 1.0 3.0 0.00 4.03 0.00 42 1018.5
20181023164129 52 0 2.0 3.0 0.00 4.03 0.00 42 1018.5
20181023163630 52 0 2.0 4.0 0.00 4.03 0.00 42 1018.6
20181023163130 51 0 1.0 4.0 0.00 4.03 0.00 43 1018.6
20181023162628 50 0 2.0 4.0 0.00 4.03 0.00 44 1018.7
20181023162129 50 0 2.0 4.0 0.00 4.03 0.00 46 1018.7
20181023161629 49 0 1.0 4.0 0.00 4.03 0.00 47 1018.7
20181023161128 50 0 2.0 3.0 0.00 4.03 0.00 47 1018.7
20181023160629 49 0 1.0 3.0 0.00 4.03 0.00 49 1018.7
20181023160130 49 0 2.0 4.0 0.00 4.03 0.00 50 1018.8
20181023155627 47 0 0.0 5.0 0.00 5.04 0.00 49 1018.6
20181023155129 48 0 1.0 5.0 0.00 5.04 0.00 50 1018.6
20181023154629 48 0 2.0 5.0 0.00 5.04 0.00 48 1018.5
20181023154129 46 0 1.0 2.0 0.00 5.04 0.00 51 1018.5
20181023153626 44 0 1.0 3.0 0.00 5.04 0.00 53 1018.5
20181023153129 43 0 1.0 3.0 0.00 5.04 0.00 55 1018.5
20181023152627 43 0 1.0 3.0 0.00 5.04 0.00 56 1018.4
20181023152127 41 76 1.0 6.0 0.00 5.04 0.00 59 1018.4
20181023151627 40 189 2.0 6.0 0.00 5.04 0.00 61 1018.3
20181023151128 39 327 1.0 4.0 0.00 5.04 0.00 62 1018.0
20181023150627 38 289 3.0 4.0 0.00 5.04 0.00 63 1018.0
20181023150127 38 0 1.0 4.0 0.00 5.04 0.00 65 1018.0
20181023145628 37 0 3.0 4.0 0.00 5.04 0.00 66 1018.0
20181023145127 36 0 2.0 4.0 0.00 5.04 0.00 67 1018.0
20181023144626 35 0 2.0 4.0 0.00 5.04 0.00 69 1017.8
20181023144126 35 69 2.0 5.0 0.00 5.04 0.00 70 1017.8
20181023143627 35 145 0.0 5.0 0.00 5.04 0.00 70 1017.8
20181023143127 35 168 2.0 5.0 0.00 5.04 0.00 70 1017.7
20181023142626 35 118 2.0 6.0 0.00 5.04 0.00 70 1017.6
20181023142125 34 121 4.0 6.0 0.00 5.04 0.00 71 1017.6
20181023141627 34 78 4.0 7.0 0.00 5.04 0.00 71 1017.4
20181023141127 34 151 5.0 7.0 0.00 5.04 0.00 70 1017.4
20181023140625 34 275 3.0 4.0 0.00 5.04 0.00 71 1017.3
20181023140124 34 276 2.0 4.0 0.00 5.04 0.00 70 1017.4
20181023135624 35 276 1.0 4.0 0.00 5.04 0.00 70 1017.4
20181023135126 35 183 1.0 3.0 0.00 5.04 0.00 70 1017.6
20181023134625 35 155 0.0 3.0 0.00 5.04 0.00 69 1017.4
20181023134124 35 155 0.0 3.0 0.00 5.04 0.00 69 1017.2
20181023133624 35 149 2.0 3.0 0.00 5.04 0.00 68 1017.2
20181023133126 35 149 2.0 3.0 0.00 5.04 0.00 68 1017.3
20181023132624 35 149 1.0 5.0 0.00 5.04 0.00 68 1017.3
20181023132124 35 147 2.0 5.0 0.00 5.04 0.00 67 1017.3
20181023131626 35 200 2.0 3.0 0.00 5.04 0.00 65 1017.3
20181023131125 35 226 1.0 2.0 0.00 5.04 0.00 64 1017.3
20181023130625 36 223 1.0 2.0 0.00 5.04 0.00 64 1017.3
20181023130125 36 199 1.0 2.0 0.00 5.04 0.00 64 1017.3
20181023125624 36 196 0.0 2.0 0.00 5.04 0.00 65 1017.2
20181023125124 36 196 0.0 3.0 0.00 5.04 0.00 66 1017.2
20181023124623 36 196 1.0 3.0 0.00 5.04 0.00 65 1017.1
20181023124123 36 227 2.0 3.0 0.00 5.04 0.00 64 1017.2
20181023123623 36 228 2.0 3.0 0.00 5.04 0.00 65 1017.2
20181023123123 35 250 0.0 5.0 0.00 5.04 0.00 65 1017.2
20181023122625 35 250 2.0 5.0 0.00 5.04 0.00 65 1017.2
20181023122121 35 234 2.0 5.0 0.00 5.04 0.00 64 1017.1
20181023121622 35 247 1.0 4.0 0.00 5.04 0.00 64 1017.0
20181023121123 35 247 2.0 5.0 0.00 5.04 0.00 64 1017.0
20181023120623 35 247 2.0 5.0 0.00 5.04 0.00 63 1017.0
20181023120123 36 248 2.0 4.0 0.00 5.04 0.00 61 1016.9
20181023115623 36 206 1.0 3.0 0.00 5.04 0.00 62 1016.9
20181023115122 36 147 1.0 3.0 0.00 5.04 0.00 63 1017.1
20181023114622 36 134 1.0 5.0 0.00 5.04 0.00 63 1017.0
20181023114123 36 135 2.0 5.0 0.00 5.04 0.00 62 1016.9
20181023113622 36 92 3.0 5.0 0.00 5.04 0.00 62 1016.9
20181023113125 36 275 2.0 3.0 0.00 5.04 0.00 61 1016.9
20181023112621 36 275 2.0 3.0 0.00 5.04 0.00 60 1016.9
20181023112121 36 214 1.0 3.0 0.00 5.04 0.00 59 1016.9
20181023111621 37 214 2.0 3.0 0.00 5.04 0.00 58 1016.9
20181023111120 37 214 2.0 3.0 0.00 5.04 0.00 58 1016.9
20181023110622 37 214 2.0 3.0 0.00 5.04 0.00 58 1016.9
20181023110122 38 217 0.0 2.0 0.00 5.04 0.00 58 1016.9
20181023105620 38 217 1.0 3.0 0.00 5.04 0.00 58 1016.9
20181023105120 38 217 2.0 3.0 0.00 5.04 0.00 59 1017.0
20181023104619 38 217 2.0 3.0 0.00 5.04 0.00 58 1017.0
20181023104121 39 217 1.0 2.0 0.00 5.04 0.00 57 1017.0
20181023103620 39 217 1.0 2.0 0.00 5.04 0.00 57 1017.1
20181023103120 39 217 1.0 2.0 0.00 5.04 0.00 58 1017.1
20181023102621 40 217 1.0 2.0 0.00 5.04 0.00 58 1017.0
20181023102119 40 193 1.0 2.0 0.00 5.04 0.00 58 1017.1
20181023101619 40 192 1.0 3.0 0.00 5.04 0.00 59 1017.2
20181023101120 40 0 1.0 6.0 0.00 5.04 0.00 58 1017.1
20181023100620 40 0 2.0 6.0 0.00 5.04 0.00 59 1017.1
20181023100119 40 0 3.0 5.0 0.00 5.04 0.00 59 1017.1
20181023095620 40 0 1.0 5.0 0.00 5.04 0.00 58 1017.1
20181023095119 40 0 4.0 5.0 0.00 5.04 0.00 59 1017.1
20181023094618 40 0 2.0 4.0 0.00 5.04 0.00 56 1017.2
20181023094119 40 0 1.0 3.0 0.00 5.04 0.00 54 1017.2
20181023093618 41 0 2.0 3.0 0.00 5.04 0.00 53 1017.2
20181023093120 41 0 1.0 3.0 0.00 5.04 0.00 53 1017.1
20181023092619 41 0 1.0 2.0 0.00 5.04 0.00 53 1017.2
20181023092117 42 0 0.0 2.0 0.00 5.04 0.00 52 1017.2
20181023091618 42 0 2.0 2.0 0.00 5.04 0.00 52 1017.2
20181023091118 43 0 0.0 3.0 0.00 5.04 0.00 53 1017.3
20181023090618 43 0 1.0 4.0 0.00 5.04 0.00 53 1017.2
20181023090119 43 0 2.0 4.0 0.00 5.04 0.00 52 1017.2
20181023085617 43 0 1.0 3.0 0.00 5.04 0.00 51 1017.2
20181023085117 44 0 1.0 5.0 0.00 5.04 0.00 52 1017.2
20181023084618 44 0 2.0 5.0 0.00 5.04 0.00 51 1017.2
20181023084117 44 0 4.0 5.0 0.00 6.05 0.00 49 1017.2
20181023083616 44 0 2.0 11.0 0.00 6.05 0.00 49 1017.3
20181023083117 44 0 5.0 11.0 0.00 6.05 0.00 49 1017.2
20181023082617 44 0 5.0 9.0 0.00 6.05 0.00 48 1017.2
20181023082117 44 0 2.0 3.0 0.00 6.05 0.00 46 1017.2
20181023081618 45 0 0.0 1.0 0.00 6.05 0.00 46 1017.3
20181023081117 45 0 1.0 3.0 0.00 6.05 0.00 44 1017.3
20181023080618 46 0 1.0 4.0 0.00 6.05 0.00 43 1017.3
20181023080116 47 0 3.0 4.0 0.00 6.05 0.00 44 1017.2
20181023075614 47 0 2.0 3.0 0.00 6.05 0.00 43 1017.1
20181023075116 47 0 2.0 3.0 0.00 6.05 0.00 43 1017.1
20181023074615 47 0 1.0 2.0 0.00 6.05 0.00 43 1017.1
20181023074115 48 0 1.0 3.0 0.00 6.05 0.00 43 1017.1
20181023073616 48 0 1.0 4.0 0.00 6.05 0.00 42 1017.1
20181023073116 48 0 2.0 4.0 0.00 6.05 0.00 41 1017.0
20181023072617 49 0 2.0 9.0 0.00 6.05 0.00 42 1017.0
20181023072115 49 0 4.0 10.0 0.00 6.05 0.00 41 1016.9
20181023071615 49 0 6.0 10.0 0.00 6.05 0.00 41 1016.9
20181023071115 49 0 5.0 10.0 0.00 6.05 0.00 41 1016.9
20181023070615 49 0 7.0 11.0 0.00 6.05 0.00 41 1016.9
20181023070114 48 0 8.0 11.0 0.00 6.05 0.00 43 1016.9
20181023065616 48 0 4.0 7.0 0.00 6.05 1.46 43 1016.9
20181023065117 48 0 2.0 5.0 1.01 6.05 1.46 42 1016.9
20181023064614 49 0 1.0 4.0 1.01 6.05 1.46 42 1016.9
20181023064115 49 0 2.0 6.0 1.01 6.05 1.46 42 1017.0
20181023063613 49 0 4.0 6.0 1.01 6.05 1.46 41 1017.0
20181023063115 49 0 3.0 6.0 1.01 6.05 1.46 41 1017.0
20181023062613 50 0 3.0 5.0 1.01 6.05 1.46 39 1017.0
20181023062116 50 0 2.0 5.0 1.01 6.05 1.46 39 1017.0
20181023061615 51 0 3.0 9.0 1.01 6.05 1.46 38 1016.9
20181023061113 52 0 4.0 10.0 1.01 6.81 1.46 37 1016.9
20181023060613 52 0 5.0 10.0 1.01 7.06 1.46 37 1016.9
20181023060113 52 0 6.0 13.0 1.01 7.06 1.46 37 1016.9
20181023055614 52 0 6.0 13.0 1.01 7.06 1.46 37 1016.9
20181023055112 52 0 7.0 12.0 0.00 6.05 1.22 37 1016.9
20181023054613 53 0 6.0 13.0 0.00 6.05 1.22 37 1016.9
20181023054112 53 0 8.0 14.0 0.00 6.05 1.22 37 1017.0
20181023053613 53 0 8.0 14.0 0.00 6.05 1.22 37 1017.0
20181023053113 53 0 8.0 14.0 0.00 6.05 1.22 37 1016.9
20181023052613 53 0 10.0 14.0 1.01 6.05 1.22 37 1017.0
20181023052114 53 0 9.0 15.0 1.01 6.05 1.22 37 1017.0
20181023051613 53 0 12.0 15.0 1.01 6.05 1.22 36 1017.0
20181023051112 53 0 10.0 14.0 1.01 6.05 1.22 36 1016.9
20181023050610 54 0 10.0 14.0 1.01 6.05 1.22 37 1016.9
20181023050112 54 0 11.0 13.0 1.01 6.05 1.22 36 1016.7
20181023045611 54 0 9.0 13.0 1.01 6.05 1.22 36 1016.9
20181023045111 54 0 8.0 13.0 1.01 6.05 1.22 35 1016.7
20181023044611 54 0 7.0 14.0 1.01 6.05 1.22 35 1016.7
20181023044113 54 0 11.0 14.0 1.01 6.05 1.22 35 1016.6
20181023043611 54 0 8.0 15.0 1.01 6.05 1.22 35 1016.5
20181023043110 54 0 11.0 15.0 1.01 6.05 1.22 35 1016.5
20181023042610 54 0 11.0 17.0 0.00 5.04 0.98 35 1016.4
20181023042110 54 0 11.0 17.0 1.01 5.04 0.98 35 1016.5
20181023041612 54 0 11.0 17.0 1.01 5.04 0.98 35 1016.4
20181023041110 55 0 10.0 17.0 1.01 5.04 0.98 35 1016.3
20181023040611 55 0 11.0 16.0 1.01 5.04 0.98 35 1016.3
20181023040111 55 0 11.0 17.0 1.01 5.04 0.98 34 1016.3
20181023035611 55 0 11.0 17.0 1.01 5.04 0.98 34 1016.2
20181023035110 55 0 11.0 16.0 1.01 5.04 0.98 35 1016.2
20181023034609 55 0 11.0 16.0 1.01 5.04 0.98 35 1016.2
20181023034108 55 0 12.0 16.0 1.01 5.04 0.98 36 1016.2
20181023033609 54 0 13.0 15.0 1.01 5.04 0.98 36 1016.2
20181023033111 54 0 10.0 16.0 1.01 5.04 0.98 35 1016.2
20181023032610 54 0 12.0 16.0 1.01 5.04 0.98 35 1016.0
20181023032109 54 0 11.0 14.0 0.00 4.03 0.73 34 1016.0
20181023031610 55 0 11.0 14.0 0.00 4.03 0.73 34 1016.2
20181023031111 55 0 11.0 13.0 0.00 4.03 0.73 34 1016.0
20181023030609 55 0 9.0 11.0 0.00 4.03 0.73 34 1016.0
20181023030109 55 0 9.0 12.0 0.00 4.03 0.73 34 1016.0
20181023025609 55 0 10.0 13.0 0.00 4.03 0.73 35 1016.0
20181023025109 55 0 9.0 13.0 0.00 4.03 0.73 35 1015.9
20181023024607 55 0 9.0 11.0 0.00 4.03 0.73 34 1015.8
20181023024108 56 0 7.0 10.0 0.00 4.03 0.73 33 1016.0
20181023023608 56 0 6.0 10.0 0.00 4.03 0.73 33 1015.9
20181023023107 56 0 6.0 13.0 0.00 4.03 0.73 32 1015.9
20181023022609 56 0 7.0 14.0 0.00 4.03 0.73 32 1015.9
20181023022108 56 0 9.0 14.0 0.00 4.03 0.73 32 1015.8
20181023021608 56 0 7.0 11.0 0.00 4.03 0.73 32 1015.8
20181023021108 57 0 6.0 11.0 0.00 4.03 0.73 32 1015.7
20181023020608 57 0 7.0 13.0 1.01 4.03 0.73 31 1015.7
20181023020107 57 0 6.0 13.0 1.01 4.03 0.73 31 1015.6
20181023015608 57 0 8.0 11.0 1.01 4.03 0.73 31 1015.5
20181023015107 56 0 8.0 11.0 1.01 4.03 0.73 30 1015.5
20181023014606 56 0 6.0 10.0 1.01 4.03 0.73 27 1015.4
20181023014106 56 0 5.0 10.0 1.01 4.03 0.73 27 1015.4
20181023013607 56 0 7.0 10.0 1.01 4.03 0.73 26 1015.4
20181023013106 56 0 5.0 6.0 1.01 4.03 0.73 25 1015.1
20181023012607 56 0 4.0 5.0 1.01 4.03 0.73 25 1014.9
20181023012107 57 0 3.0 4.0 1.01 4.03 0.73 25 1015.0
20181023011608 57 0 2.0 4.0 1.01 4.03 0.73 25 1014.9
20181023011106 57 0 4.0 4.0 1.01 4.03 0.73 25 1014.9
20181023010605 58 0 2.0 4.0 0.00 3.02 0.49 25 1014.8
20181023010105 58 0 2.0 4.0 0.00 3.02 0.49 24 1014.7
20181023005606 58 0 3.0 5.0 0.00 3.02 0.49 25 1014.7
20181023005107 58 0 3.0 5.0 0.00 3.02 0.49 26 1014.7
20181023004605 59 0 4.0 4.0 0.00 3.02 0.49 26 1014.7
20181023004106 59 0 2.0 3.0 0.00 3.02 0.49 25 1014.5
20181023003604 60 0 2.0 4.0 0.00 3.02 0.49 25 1014.7
20181023003106 59 0 2.0 4.0 0.00 3.02 0.49 25 1014.5
20181023002605 60 0 2.0 2.0 0.00 3.02 0.49 24 1014.7
20181023002104 61 0 1.0 3.0 0.00 3.02 0.49 23 1014.5
20181023001604 62 0 0.0 3.0 0.00 3.02 0.49 22 1014.5
20181023001106 64 0 2.0 3.0 0.00 3.02 0.49 22 1014.4
20181023000604 65 0 0.0 4.0 0.00 3.02 0.49 19 1014.5
20181023000104 65 0 2.0 4.0 0.00 3.02 0.49 20 1014.5
20181022235604 67 0 2.0 4.0 0.00 3.02 0.49 19 1014.4
20181022235105 67 0 2.0 5.0 0.00 3.02 0.49 18 1014.4
20181022234604 69 0 3.0 5.0 0.00 3.02 0.49 17 1014.4
20181022234104 70 0 2.0 5.0 0.00 3.02 0.49 17 1014.5
20181022233605 70 0 3.0 5.0 0.00 3.02 0.49 17 1014.5
20181022233105 69 0 2.0 5.0 0.00 3.02 0.49 17 1014.5
20181022232604 69 0 4.0 7.0 0.00 3.02 0.49 17 1014.5
20181022232104 69 0 4.0 9.0 0.00 3.02 0.49 18 1014.5
20181022231603 70 0 4.0 9.0 0.00 3.02 0.49 17 1014.5
20181022231102 70 0 5.0 6.0 0.00 3.02 0.49 17 1014.7
20181022230602 70 0 2.0 5.0 0.00 3.02 0.49 17 1014.7
20181022230103 70 0 2.0 5.0 0.00 3.02 0.49 17 1014.7
20181022225604 70 0 2.0 5.0 0.00 3.02 0.49 17 1014.7
20181022225101 71 0 2.0 6.0 0.00 3.02 0.49 16 1014.8
20181022224603 71 0 3.0 7.0 0.00 3.02 0.49 16 1014.8
20181022224103 70 0 3.0 7.0 0.00 3.02 0.49 16 1014.7
20181022223602 71 0 3.0 9.0 0.00 3.02 0.49 16 1014.8
20181022223103 71 0 4.0 9.0 0.00 3.02 0.49 17 1014.8
20181022222601 71 0 3.0 6.0 0.00 3.02 0.49 17 1014.8
20181022222101 71 0 2.0 7.0 0.00 3.02 0.49 17 1014.9
20181022221602 72 0 4.0 7.0 0.00 3.02 0.49 17 1014.9
20181022221101 73 0 3.0 6.0 0.00 3.02 0.49 16 1014.9
20181022220603 70 0 2.0 9.0 0.00 3.02 0.49 18 1014.9
20181022220102 71 0 6.0 10.0 0.00 3.02 0.49 17 1014.9
20181022215602 71 0 4.0 10.0 0.00 3.02 0.49 17 1014.9
20181022215101 71 0 5.0 9.0 0.00 3.02 0.49 17 1014.9
20181022214601 73 0 5.0 9.0 0.00 3.02 0.49 16 1015.0
20181022214101 73 0 5.0 9.0 0.00 3.02 0.49 16 1014.9
20181022213600 72 0 3.0 7.0 0.00 3.02 0.49 17 1015.0
20181022213101 70 0 3.0 10.0 0.00 3.02 0.49 17 1015.0
20181022212611 71 0 5.0 10.0 0.00 3.02 0.49 16 1015.2
20181022212602 69 0 5.0 10.0 0.00 3.02 0.49 17 1015.1
20181022212106 71 0 4.0 9.0 0.00 3.02 0.49 18 1015.2
20181022211612 69 0 6.0 12.0 0.00 3.02 0.49 18 1015.4
20181022211059 70 0 6.0 12.0 0.00 3.02 0.49 18 1015.4
20181022210607 70 0 5.0 11.0 0.00 3.02 0.49 17 1015.4
20181022205612 72 0 6.0 10.0 0.00 3.02 0.49 17 1015.6
20181022205559 72 0 4.0 11.0 0.00 3.02 0.49 16 1015.5
20181022205059 72 0 7.0 11.0 0.00 3.02 0.49 17 1015.5
20181022204607 71 0 3.0 7.0 0.00 3.02 0.49 18 1015.7
20181022203600 69 0 2.0 11.0 0.00 3.02 0.49 18 1015.8
20181022203100 71 0 5.0 11.0 0.00 3.02 0.49 18 1015.9
20181022202559 71 0 3.0 11.0 0.00 3.02 0.49 18 1015.9
20181022202059 71 0 4.0 11.0 0.00 3.02 0.49 18 1015.9
20181022201558 70 0 6.0 11.0 0.00 3.02 0.49 19 1016.0
20181022201100 69 0 4.0 11.0 0.00 3.02 0.49 19 1016.0
20181022200558 70 0 7.0 10.0 0.00 3.02 0.49 18 1016.0
20181022200059 71 0 5.0 9.0 0.00 3.02 0.49 19 1016.3
20181022195609 70 0 2.0 6.0 0.00 3.02 0.49 19 1016.4
20181022195600 72 0 3.0 6.0 0.00 3.02 0.49 18 1016.3
20181022194557 71 0 4.0 6.0 0.00 3.02 0.49 18 1016.5
20181022194059 69 0 4.0 6.0 0.00 3.02 0.49 20 1016.5
20181022193559 69 0 3.0 6.0 0.00 3.02 0.49 19 1016.6
20181022193058 69 0 4.0 6.0 0.00 3.02 0.49 19 1016.7
20181022192559 68 0 3.0 9.0 0.00 3.02 0.49 20 1016.7
20181022192057 70 0 4.0 9.0 0.00 3.02 0.49 20 1016.9
20181022191557 69 0 2.0 7.0 0.00 3.02 0.49 22 1016.9
20181022191056 67 0 2.0 4.0 0.00 3.02 0.49 23 1017.0
20181022190556 66 0 1.0 5.0 0.00 3.02 0.49 22 1017.0
20181022190057 68 0 4.0 5.0 0.00 3.02 0.49 22 1017.0
20181022185557 66 0 1.0 5.0 0.00 3.02 0.49 23 1017.1
20181022185056 67 0 3.0 5.0 0.00 3.02 0.49 23 1017.1
20181022184556 67 0 2.0 5.0 0.00 3.02 0.49 25 1017.1
20181022184056 67 0 1.0 6.0 0.00 3.02 0.49 24 1017.1
20181022183555 66 0 2.0 6.0 0.00 3.02 0.49 25 1017.1
20181022183055 65 0 3.0 5.0 0.00 3.02 0.49 25 1017.2
20181022182555 66 0 3.0 5.0 0.00 3.02 0.49 26 1017.3